Погода в Усть-Есе

Россия / Республика Хакасия     52°57′19″N   90°14′54″E
темп.,
°C
ветер,
м/с
пор.,
м/с
влажн.,
%
обл.,
%
осадки,
мм/ч
давл.,
гПа
погр.,
м
8 мая, сб
сб801:00+11з3880100 1.0 1016236
04:00+8юз3489100 0.0 101776
07:00+9юз39785 0.0 1018369
10:00+14зюз912495 0.0 10161930
13:00+16з9123910 0.0 10152321
16:00+17з911355 0.0 10152183
19:00+15з712445 0.0 10151914
22:00+11юз49587 0.0 1017206
9 мая, вс
вс901:00+11юз5135683 0.0 1016754
04:00+9з3669100 0.3 1016130
07:00+11юз5126674 0.6 1015935
10:00+14зюз7135668 0.6 10141834
13:00+16зсз7134972 1.6 10132339
16:00+11ссв586399 1.2 10141075
19:00+4всв6994100 1.5 1019645
22:00+5всв368688 0.3 1020606
10 мая, пн
пн1001:00+5св118095 0.4 102022
04:00+3св118077 0.0 102111
07:00+4св237211 0.0 1022241
10:00+7всв455680 0.0 10221482
13:00+10всв664869 0.1 10211671
16:00+11св674516 0.0 10201696
19:00+9всв78525 0.0 10191164
22:00+6всв512641 0.0 1019431
11 мая, вт
вт1101:00+4св411743 0.0 1017319
04:00+2св23843 0.0 101658
07:00+4св26763 0.0 1016386
10:00+9всв555974 0.0 1015861
13:00+12св4446100 0.0 10131125
16:00+14св4339100 0.0 10111380
19:00+14св23412 0.0 10111379
22:00+9зюз1152100 0.0 101210
12 мая, ср
ср1201:00+8зюз2260100 0.0 101314
04:00+7юз2269100 0.0 101325
07:00+9юз4977100 0.1 1013548
10:00+10зюз567097 0.8 1014837
13:00+11сз666757 1.9 10141061
16:00+11ссз665980 0.5 10151171
19:00+9зсз467098 1.1 1017473
22:00+8зюз4780100 0.1 1018342